Location: Winthrop
(48.4780°N, 120.1850°W)
Time: 04:56:49
(UTC-08:00)

Vanguard 1 Rocket - Pass Details

Date: 02 December 2023
Orbit: 654 x 4218 km, 34.3° (Epoch: 24 February)

Event Time Altitude Azimuth Distance (km) Brightness Sun altitude
Rises 04:39:11 0° 219° (SW) 8,236 12.0 -27.8°
Reaches altitude 10° 04:46:23 10° 210° (SSW) 6,849 11.6 -26.7°
Maximum altitude 05:02:38 30° 160° (SSE) 4,037 10.8 -24.0°
Drops below altitude 10° 05:12:49 10° 105° (ESE) 4,273 11.9 -22.3°
Sets 05:16:00 0° 94° (E) 4,852 12.6 -21.8°
